Vorticity
nan nan nan nan nan nan nan nan nan nan nan nan nan nan nan nan nan nan nan nan nan nan nan nan nan nan nan nan nan nan nan nan nan nan nan nan nan nan nan nan nan nan nan nan
nan 12 11 8 6 10 11 7 6 6 11 10 9 6 9 12 8 6 6 6 6 7 8 7 7 8 8 7 7 7 7 7 5 5 7 9 10 9 9 9 11 10 10 nan
nan 11 12 9 7 7 9 11 6 5 1 5 12 8 8 10 11 7 6 7 8 9 8 8 9 7 7 8 8 8 8 7 8 6 5 6 6 8 10 9 10 11 10 nan
nan 15 12 6 6 7 7 12 10 7 1 5 3 10 14 14 11 7 7 7 7 8 7 8 9 9 7 8 9 8 8 8 9 8 6 5 3 5 7 10 9 10 11 nan
nan 12 12 12 7 3 15 21 17 10 2 5 5 7 12 18 14 10 9 8 7 8 8 7 8 9 9 8 8 8 9 8 9 7 6 6 5 6 8 9 9 9 9 nan
nan 6 13 12 13 7 3 4 9 14 13 10 10 4 6 10 11 11 12 11 9 9 8 8 9 9 9 9 9 9 9 8 9 8 8 6 6 6 5 7 8 9 8 nan
nan 2 7 14 10 9 5 -1 2 4 5 8 15 10 8 6 9 13 13 16 10 7 9 10 10 8 9 10 8 8 8 8 9 9 8 9 8 8 6 5 8 9 7 nan
nan 8 12 6 9 12 15 -1 1 8 8 6 11 10 12 8 6 11 11 18 18 10 8 9 9 8 9 10 8 8 8 9 9 9 8 9 8 6 9 8 8 9 9 nan
nan 7 8 13 15 10 5 13 7 3 6 11 6 6 11 17 15 13 15 12 12 13 11 9 7 8 8 9 10 8 7 8 9 8 8 9 9 8 8 9 7 8 9 nan
nan 13 14 9 5 6 12 12 9 11 8 3 0 5 13 11 12 12 14 10 11 13 11 11 10 9 9 8 9 9 9 8 8 9 8 9 9 9 8 9 12 8 9 nan
nan 4 7 9 17 3 -1 -1 3 9 17 16 6 6 11 6 7 12 11 13 14 14 12 10 10 10 8 8 9 9 8 8 8 9 9 8 10 8 6 10 7 12 11 nan
nan 10 10 5 4 16 12 5 -0 4 5 5 13 13 11 12 7 8 9 12 18 17 13 12 11 9 9 9 10 9 8 7 6 8 8 9 7 8 9 9 13 9 8 nan
nan 10 11 10 6 8 13 15 8 1 8 10 5 3 4 10 12 8 8 9 16 16 14 13 12 10 10 10 9 10 10 9 7 8 8 9 8 8 10 5 7 15 15 nan
nan 7 7 6 6 8 6 9 13 10 3 7 8 5 3 6 7 10 11 10 13 15 13 9 10 11 9 9 10 10 10 12 11 10 9 9 11 6 9 14 9 9 6 nan
nan 12 15 7 12 13 4 5 6 6 6 6 7 13 7 8 11 11 7 11 15 14 11 9 8 9 10 9 10 11 11 12 12 11 10 9 10 14 11 7 7 5 9 nan
nan 11 18 21 18 14 11 7 8 10 7 6 8 11 11 9 10 13 12 13 11 10 10 9 8 11 11 10 10 11 12 11 11 10 10 12 13 12 9 8 6 4 4 nan
nan 8 10 16 25 20 15 14 7 7 15 13 8 4 7 11 9 9 13 11 10 10 12 12 11 9 11 12 11 12 12 12 11 10 12 13 12 10 10 7 7 6 7 nan
nan 11 8 10 20 18 19 22 16 10 7 5 3 9 10 10 12 13 17 15 11 12 14 14 14 12 11 12 12 13 14 13 12 12 12 13 11 10 10 8 7 7 8 nan
nan 9 11 15 8 9 23 21 24 19 8 13 13 9 10 15 13 14 13 18 19 19 16 18 15 14 15 15 14 13 12 12 11 12 12 12 11 12 11 9 5 7 9 nan
nan 8 9 12 11 8 4 6 16 25 29 18 13 15 18 13 6 9 17 21 20 17 18 16 15 15 12 13 15 12 12 12 12 13 12 12 13 12 10 9 8 8 10 nan
nan 3 7 12 13 3 -4 16 26 15 12 16 19 22 19 10 16 20 17 14 15 16 15 11 11 10 12 13 11 12 13 12 12 13 14 14 11 12 13 10 10 11 12 nan
nan 6 6 9 12 -3 2 24 11 11 23 23 21 15 14 17 15 11 9 9 10 10 10 8 8 9 12 14 12 11 10 13 15 15 12 11 11 10 11 10 10 13 11 nan
nan 9 11 8 7 7 12 17 17 15 14 15 15 12 9 7 8 9 8 6 7 9 8 10 13 10 10 10 12 12 14 12 11 10 11 12 10 10 10 10 7 9 9 nan
nan 12 12 12 10 4 8 14 16 15 11 12 11 10 12 8 8 8 10 10 9 10 11 12 8 9 11 13 16 13 11 10 12 11 11 10 12 10 10 11 11 10 11 nan
nan 17 9 10 12 7 13 8 7 11 10 9 9 12 10 10 10 10 9 10 10 9 9 11 11 10 11 13 15 15 13 11 9 10 11 9 10 8 5 9 16 16 11 nan
nan nan nan nan nan nan nan nan nan nan nan nan nan nan nan nan nan nan nan nan nan nan nan nan nan nan nan nan nan nan nan nan nan nan nan nan nan nan nan nan nan nan nan nan
CAPE
0 0 0 0 0 0 3 32 88 109 67 100 123 117 375 484 474 565 815 993 915 951 1044 1208 1354 1397 1446 1568 1692 1942 2136 2369 2343 2225 2231 2191 2124 2505 2528 3023 2155 2236 2200 2065
0 0 0 0 0 0 3 26 61 37 77 90 73 112 212 469 467 449 567 798 909 949 1061 1194 1218 1112 1228 1464 1556 1927 2158 2470 2450 2243 2219 2141 2320 2340 2284 2316 2531 2368 2187 2212
0 0 0 0 0 0 0 26 36 36 35 84 125 53 123 363 453 386 373 437 517 625 771 803 895 994 1072 1207 1479 1855 2352 2496 2355 2319 2246 2213 2093 1995 2047 2142 2051 2139 2190 2098
0 0 0 0 0 0 0 0 49 57 61 27 65 33 99 263 507 477 433 378 368 404 489 501 559 825 1042 1050 1237 1930 2090 2373 2201 2315 2123 2226 2031 2048 1997 1715 1850 2166 1969 1755
0 0 0 0 0 0 0 0 1 42 86 27 67 11 21 169 328 526 526 476 401 343 374 418 437 617 875 988 1010 1290 1956 2266 2125 2231 2494 2233 2289 2205 1978 1343 1741 2161 1491 1272
0 0 0 0 0 0 0 0 0 0 22 9 4 6 0 129 283 331 337 426 430 364 366 391 427 460 687 861 956 1079 1775 2272 1972 1986 2208 2383 2460 2394 1770 1226 917 1431 980 495
0 0 0 0 0 0 0 0 0 0 0 0 0 4 28 31 143 186 224 287 333 347 325 376 498 533 844 978 1106 1289 1901 2078 1724 1808 2119 2245 2455 2598 2089 1713 1042 980 809 320
0 0 0 0 0 0 0 0 0 0 0 0 0 0 0 65 64 76 182 198 282 313 480 472 865 826 870 856 1482 1580 1893 2043 1843 1745 2342 2624 2586 2301 1931 1566 945 839 779 340
0 0 0 0 0 0 0 0 0 0 0 0 0 0 0 1 2 3 52 129 258 414 476 586 646 669 1003 1233 1504 1687 1960 2119 2131 1937 2549 2539 2658 2339 1886 1279 867 784 596 218
0 0 0 0 0 0 0 0 0 0 0 0 0 0 0 0 26 60 30 83 204 438 564 650 987 1080 1203 1239 1576 1769 1965 2128 2101 1735 2295 2292 2138 1512 1772 1102 394 547 449 299
0 0 0 0 0 0 0 0 0 0 0 0 0 0 0 0 23 46 67 40 117 376 478 840 1182 1147 1346 1272 1248 1506 1758 2155 2181 2148 2529 2604 1803 1413 860 696 309 105 427 354
0 0 0 0 0 0 0 0 0 0 0 0 0 0 0 0 0 1 17 14 13 242 398 794 989 1127 1133 1399 1201 1352 1712 1746 2154 2247 2482 2167 1353 315 721 13 103 256 172 253
0 0 0 0 0 0 0 0 0 0 0 0 0 0 0 0 0 0 0 8 34 198 372 716 921 1421 1637 1614 1876 1781 1740 1674 1835 2124 1876 1667 1088 452 207 251 81 174 201 130
0 0 0 0 0 0 0 0 0 0 0 0 0 0 0 0 0 14 11 41 77 96 315 723 939 1362 1812 2066 2137 2074 1843 1713 1776 1868 2014 1954 1376 818 485 18 25 0 19 22
0 0 0 0 0 0 0 0 0 0 0 0 0 0 0 0 24 121 260 186 138 135 292 819 854 1438 1873 2011 2267 2070 1847 2277 2222 2281 2131 1729 1138 707 273 112 23 0 0 0
0 0 0 0 0 0 0 0 0 0 0 0 0 0 0 0 0 29 131 138 205 221 283 636 941 1039 1354 1593 1551 1544 1826 2155 2336 2491 2137 1723 1174 539 315 245 187 27 0 0
121 0 0 0 0 0 0 0 0 0 0 0 0 0 0 0 0 48 319 172 351 513 437 461 832 1341 1283 1162 1356 1360 1523 1742 2209 2265 2058 1653 1110 549 511 326 120 58 0 0
109 30 0 1 0 0 0 0 0 0 0 0 0 0 0 0 14 54 115 206 316 498 596 514 337 460 763 767 898 1236 1413 1817 2101 2246 2044 1586 952 772 559 605 271 140 121 0
85 0 37 5 36 0 0 0 0 0 0 0 0 0 0 0 0 28 0 0 107 106 213 313 309 338 525 581 800 1167 1478 1780 2043 2203 2051 1448 993 909 646 639 268 67 129 165
10 88 32 8 0 0 54 24 15 10 0 0 0 1 0 0 4 111 0 0 23 107 348 524 390 541 788 971 1083 1461 1718 1874 2027 2097 1975 1483 1165 1004 825 365 263 415 492 375
231 640 334 386 121 92 4 2 64 64 16 0 2 34 0 22 30 8 25 122 232 270 300 485 683 943 1193 1210 1576 1854 1834 1970 2036 1854 1765 1309 1025 838 367 377 431 492 392 387
442 381 742 491 219 294 0 62 193 108 0 0 19 25 99 182 297 312 386 479 618 696 677 786 1133 1072 1120 1388 1795 1724 1634 1223 1285 1265 1199 980 912 862 557 448 442 468 688 732
396 435 493 452 244 36 0 0 10 109 130 126 141 98 210 118 150 252 361 403 499 635 675 791 833 978 922 1087 1484 1260 576 877 1036 943 681 777 874 994 893 834 792 807 695 168
485 335 239 385 150 3 0 0 0 0 0 0 0 23 58 138 373 694 755 750 715 585 535 542 435 321 347 579 807 518 554 772 857 908 795 847 987 817 714 546 441 191 72 33
161 300 208 182 51 16 0 0 0 0 0 0 0 0 0 0 0 142 550 636 695 659 567 611 646 574 240 336 442 577 612 618 753 774 703 835 864 664 2 3 8 8 14 10
1 80 306 107 132 209 21 0 0 0 0 0 0 0 0 0 0 0 13 182 427 569 427 396 509 412 308 391 399 477 454 368 508 400 307 252 67 1 0 0 2 1 0 0